Regional Weather Roundup
Issued by NWS Wakefield, VA

Home | Current Version | Previous Version | Text Only | Print | Product List | Glossary On
Versions: 1 2 3 4 5 6 7 8 9 10 11 12 13 14 15 16 17 18 19 20 21 22 23 24 25 26 27
000
ASUS41 KAKQ 180215
RWRAKQ

REGIONAL WEATHER ROUNDUP
NATIONAL WEATHER SERVICE WAKEFIELD VA
900 PM EST SUN DEC 17 2017

Note: "fair" indicates few or no clouds below 12,000 feet with no
significant weather and/or obstructions to visibility. * = Denotes
station may not report precipitation (e.g., rain,snow,etc.),
thunder or fog.

VAZ042-051-052>054-056-180300-
NORTHERN VIRGINIA

CITY           SKY/WX    TMP DP  RH WIND       PRES   REMARKS
WASH NATIONAL  CLOUDY    46  32  58 S3        30.18F
DULLES         CLOUDY    44  32  62 CALM      30.16F
FORT BELVOIR   LGT RAIN  39  36  87 CALM      30.16F
QUANTICO       CLOUDY    43  36  76 SW3       30.18F
FREDERICKSBRG* CLOUDY    44  35  71 S5        30.16S
STAFFORD*      CLOUDY    40  40 100 CALM      30.21R
WARRENTON      CLOUDY    40  35  82 CALM      30.14F
CULPEPER*      CLOUDY    40  38  91 CALM      30.16F
MANASSAS*      LGT RAIN  38  36  92 CALM      30.16F
LEESBURG*      CLOUDY    43  32  65 CALM      30.16F
WINCHESTER     DRIZZLE   37  32  81 CALM      30.13S
FRONT ROYAL*   CLOUDY    41  32  70 MISG      30.13S
LURAY*         CLOUDY    39  37  93 CALM      30.13F
$$

VAZ048-049-060>072-079>083-180300-
CENTRAL AND SOUTH CENTRAL VIRGINIA

CITY           SKY/WX    TMP DP  RH WIND       PRES   REMARKS
RICHMOND       CLOUDY    43  37  79 SW7       30.19F
CHESTERFIELD*  NOT AVBL
PETERSBURG*    CLOUDY    43  36  75 CALM      30.21S
HANOVER        CLOUDY    43  37  79 S7        30.19F
TAPPAHANNOCK*  CLOUDY    41  40  94 CALM      30.19F
QUINTON*       CLOUDY    43  36  75 MISG      30.19F
CHARLOTTSVILLE CLOUDY    44  36  73 SW6       30.14S
GORDONSVILLE*  CLOUDY    40  37  89 SW3       30.15S
ORANGE*        CLOUDY    41  32  70 CALM      30.15S
LOUISA*        CLOUDY    41  33  72 S5        30.20F
BUMPASS*       CLOUDY    41  35  80 CALM      30.17S
FARMVILLE*     CLOUDY    40  40 100 S3        30.17F
CREWE*         CLOUDY    39  39 100 CALM      30.18F
FORT PICKETT*  NOT AVBL
CHASE CITY*    CLOUDY    43  37  82 SE3       30.18F
CLARKSVILLE*   CLOUDY    43  37  81 S3        30.19F
SOUTH HILL*    CLOUDY    42  39  91 S3        30.26F
LAWRENCEVILLE* CLOUDY    42  37  85 CALM      30.20F
EMPORIA*       CLOUDY    41  37  87 CALM      30.24R
$$

VAZ088>098-180300-
SOUTHEAST VIRGINIA

CITY           SKY/WX    TMP DP  RH WIND       PRES   REMARKS
NORFOLK        CLOUDY    47  36  65 S5        30.21F
VIRGINIA BEACH CLOUDY    46  33  60 CALM      30.21F
NORFOLK NAVAL  CLOUDY    48  34  58 SW5       30.22F
WEST POINT*    CLOUDY   N/A N/A N/A S3        30.21F
SALUDA*        CLOUDY    42  38  83 CALM      30.20F
NEWPORT NEWS   CLOUDY    46  35  65 SW6       30.21F
LANGLEY AFB    CLOUDY    46  36  69 SW3       30.20F
FORT EUSTIS    CLOUDY    45  35  68 CALM      30.18F
WILLIAMSBURG*  CLOUDY    45  37  76 CALM      30.22S
HR EXEC AP*    LGT RAIN  47  34  60 SW5       30.22F
FRANKLIN*      CLOUDY    46  34  64 CALM      30.21F
US460-WAKEFLD  CLOUDY    44  37  76 CALM      30.21F
$$

VAZ020-022-025-037-045-180300-
WEST CENTRAL AND SOUTHWEST VIRGINIA

CITY           SKY/WX    TMP DP  RH WIND       PRES   REMARKS
STAUNTON*      CLOUDY    40  32  72 SW3       30.15S
WAYNESBORO*    CLOUDY    39  34  82 S3        30.13F
HOT SPRINGS VA CLOUDY    36  26  65 CALM      30.09S
LYNCHBURG      PTCLDY    37  32  82 CALM      30.16F
DANVILLE       CLOUDY    42  38  85 CALM      30.18F
SOUTH BOSTON*  CLOUDY    41  37  86 CALM      30.18F
MARTINSVILLE   CLOUDY    39  36  87 CALM      30.20R
ROANOKE        CLOUDY    41  35  79 N3        30.17F
BLACKSBURG     CLOUDY    39  34  83 CALM      30.17S
DUBLIN*        CLOUDY    39  36  87 CALM      30.16R
MARION*        CLOUDY    41  31  68 CALM      30.16S
HILLSVILLE*    CLOUDY    38  28  65 CALM      30.12F
RICHLANDS*     CLOUDY    38  30  72 CALM      30.13S
WISE*          CLOUDY    41  41 100 SW17      30.14R
ABINGDON*      CLOUDY    41  38  89 CALM      30.16S
$$

MDZ021>025-VAZ099-100-180300-
SOUTHERN MARYLAND AND THE DELMARVA PENINSULA

CITY           SKY/WX    TMP DP  RH WIND       PRES   REMARKS
PATUXENT RIVER CLOUDY    43  42  97 SE5       30.18F
BAY BRIDGE APT CLOUDY    43  34  70 SE3       30.18F
LEONARDTOWN    CLOUDY    41  37  87 CALM      30.19F
DOVER          CLOUDY    39  39 100 NE6       30.18F
GEORGETOWN     CLOUDY    43  35  73 CALM      30.21S
EASTON         CLEAR     45  36  70 S6        30.21F
CAMBRIDGE      CLOUDY    41  37  87 E3        30.19F
SALISBURY      CLOUDY    44  40  85 S6        30.18F
OCEAN CITY     CLOUDY    42  40  92 CALM      30.21F
WALLOPS ISLAND LGT RAIN  43  42  97 CALM      30.20F
ACCOMACK*      CLOUDY    46  37  73 SW5       30.20F
$$

NCZ012>017-030>032-180300-
NORTH CENTRAL AND EASTERN NORTH CAROLINA

CITY           SKY/WX    TMP DP  RH WIND       PRES   REMARKS
ROANOKE RAPIDS LGT RAIN  43  41  93 CALM      30.24R
RALEIGH        CLOUDY    45  40  82 S5        30.21F
ELIZABETH CITY CLOUDY    45  43  93 S5        30.23F
AHOSKIE*       CLOUDY    41  41 100 CALM      30.24S
EDENTON*       CLOUDY    46  44  93 CALM      30.25F
CURRITUCK*     LGT RAIN  44  38  79 CALM      30.23F
KILL DEVIL HLS LGT RAIN  44  37  76 CALM      30.24R
MANTEO         DRIZZLE   45  41  86 CALM      30.25S
CAPE HATTERAS  CLOUDY    49  44  83 NW5       30.24S
TARBORO*       NOT AVBL
GOLDSBORO      CLOUDY    50  38  63 CALM      30.22S
WASHINGTON     LGT RAIN  47  40  78 CALM      30.25S
GREENVILLE     MOCLDY    46  41  81 CALM      30.25F
NEW BERN       CLOUDY    47  46  97 SE5       30.25S
WILMINGTON     CLOUDY    54  47  77 CALM      30.24R
$$

VAZ048-180300-
ELSEWHERE

CITY           SKY/WX    TMP DP  RH WIND       PRES   REMARKS
HARRISBURG PA  CLOUDY    37  30  75 CALM      30.18F
BALTIMORE      CLOUDY    41  34  76 CALM      30.17F
ANNAPOLIS      CLOUDY    42  41  96 CALM      30.17F
ANDREWS AFB    CLOUDY    42  33  70 CALM      30.15F
PHILADELPHIA   CLOUDY    39  30  70 E7        30.22F
HENDERSON NC   CLOUDY    40  37  90 CALM      30.21F
GREENSBORO     CLOUDY    44  40  85 SW3       30.18S
ROCKY MOUNT    LGT RAIN  45  43  93 CALM      30.24R
$$

VAZ100-180300-
MARINE

STATION/POSITION TIME  TEMP    WIND        PRES    WAVE   SWELL
                       AIR SEA DIR/SP/G            HT/PER HT/PER
                 (UTC) (F)     (DEG/KT/KT) (MB)    (FT/S) (FT/S)
BRANDYWINE LGT   0148          120/  5/  5   N/A
CAPE MAY NJ      0148   43 42   80/  3/  4 1022.2F
LEWES DE         0142   45 42  180/  3/  4 1022.8S
15NM E FENWICK I 0150   50 52  100/  6/  6 1023.1F   1/ 9   2/ 9
OCEAN-CITY-INLET 0142   45 45  180/  3/  3 1023.4F
WACHAPREAGUE VA  0142   44 41  210/  2/  4 1022.9F
THOMAS POINT MD  0200   44 43  160/  7/  7   N/A
GOOSES REEF MD   0200   43 44  160/  8/  8 1022.1    0
COVE POINT MD    0142   43     160/  5/  7 1022.5F
SOLOMONS ISLAND  0142   44 44  150/  6/  8 1021.6F
BISHOPS HEAD MD  0142   41 38  160/  8/ 10 1022.7F
PINEY POINT MD   0148          160/  6/  7   N/A
POTOMAC MD       0200   45 44  160/  6/  6 1021.5    0
CAMBRIDGE MD     0142   43 39              1022.9F
LEWISETTA VA     0142   43 39  180/  2/  3 1022.2F
RAPPAHANNOCK LGT 0142          220/  5/  6 1023.3F
STINGRAY PT      0200   45 45  200/  6/  6 1022.6    0
YORK RVR RNG VA  0142   46     240/  4/  6 1023.3F
YORKTOWN VA      0142   45 45  220/  4/  5 1022.7F
JAMESTOWN VA     0200      43  170/  2/  4   N/A     0
DOMINION TERM VA 0142   46     200/  4/  6 1023.1F
KIPTOPEKE VA     0142      45  210/  5/  6   N/A
CAPE HENRY VA    0142   47     160/  2/  2   N/A
WILLOUBY STN VA  0142          220/  6/  7 1022.6F
S CRANEY ISL VA  0142   47     200/  4/  6 1023.0F
CAPE HENRY BUOY  0200      51                N/A     1/11
1ST LANDING BUOY 0200   47 46  190/  4/  6 1022.8    1
CAPE CHARLES BUO 0121      50                N/A     1/10
64NM E OF VA BCH 0150   54 58  250/ 12/ 14 1023.7S   2/ 3
DUCK PIER NC     0142   47 52  220/  4/  5 1023.1F
44100 DUCK FRF   0145      54                N/A     1/ 9
44056 DUCK FRF   0200      54                N/A     1/10
OREGON INLET NC  0148          220/  2/  4   N/A
HATTERAS NC      0142   50 52  340/  2/  4 1023.8R
DIAMOND SHLS NC  0200   60 72  310/  8/ 10 1024.6
CAPE LOOKOUT NC  0200           20/  5/  6 1024.6R
$$




USA.gov is the U.S. government's official web portal to all federal, state and local government web resources and services.